Wind_Speed
14 13 11 5 4 5 4 4 2 5 4 6 8 7 9 5 2 4 14 10 11 11 15 14 12 14 12 10 8 7 8 8 7 9 10 7 11 14 10 5 11 15 15 16 16 15 16 18 19
15 16 6 3 4 4 2 2 9 4 9 7 6 7 4 2 3 13 16 14 11 12 15 15 13 13 10 8 5 5 3 3 3 6 12 10 13 16 9 6 12 14 15 14 14 16 17 17 19
11 11 5 3 2 4 4 3 6 8 7 3 3 5 3 3 6 20 18 15 12 12 15 15 12 12 11 7 5 5 3 2 3 10 15 15 12 18 11 7 14 15 13 14 13 15 15 16 17
14 5 3 3 3 3 6 4 8 9 4 3 5 7 7 6 9 11 22 18 15 10 16 14 12 11 10 7 6 4 2 3 7 13 14 14 11 16 10 6 13 14 13 12 12 14 14 14 15
10 4 3 3 4 1 4 7 3 5 7 6 4 5 6 6 7 11 23 19 15 13 12 13 13 12 10 8 6 4 3 3 4 12 14 16 13 16 11 7 10 13 12 11 13 12 13 13 14
6 4 4 2 4 5 3 6 4 2 7 9 5 7 5 5 10 17 22 17 15 15 14 13 14 13 11 10 8 6 3 1 5 11 14 15 13 16 12 8 9 12 11 11 10 10 11 11 12
1 3 3 4 5 5 3 5 6 3 3 2 5 4 7 9 9 23 22 19 16 15 14 12 15 14 13 12 10 8 4 2 3 5 10 14 14 16 14 10 9 9 10 10 9 9 9 10 11
4 3 3 3 3 6 4 3 4 7 0 5 4 4 6 13 12 20 23 21 13 16 14 11 16 16 15 14 13 10 7 5 5 5 7 12 14 14 16 13 9 10 10 9 7 7 8 8 10
3 3 2 4 2 4 6 3 4 4 5 1 1 3 6 10 13 19 26 20 15 16 16 14 14 17 16 16 15 14 11 10 10 9 8 9 12 14 12 11 10 11 10 9 8 7 6 7 7
4 3 6 6 5 5 4 0 5 2 4 3 6 7 8 11 13 18 27 25 24 23 21 18 15 15 18 17 17 17 15 14 14 11 10 11 11 11 11 12 14 13 12 10 8 7 6 6 6
5 4 6 18 20 10 4 6 5 4 2 5 2 9 15 16 15 18 23 26 28 25 22 21 18 16 17 19 18 20 19 17 16 17 14 14 14 13 13 13 15 15 13 11 9 7 6 6 6
4 11 12 19 24 14 5 6 8 5 9 8 10 9 9 18 17 19 22 25 28 27 22 23 23 22 20 20 19 18 20 21 19 18 18 18 17 15 14 14 15 15 14 13 11 9 7 6 5
7 8 16 20 23 17 13 6 8 14 18 15 16 10 11 14 16 18 21 22 26 29 24 24 25 26 23 23 23 22 20 22 22 21 19 21 19 18 17 17 18 17 16 15 13 11 9 8 8
6 4 6 7 14 15 11 9 6 7 15 15 15 14 16 19 18 19 20 26 28 29 29 27 27 29 29 29 28 25 23 24 23 24 20 22 22 21 20 20 20 19 19 17 15 13 11 10 10
2 4 6 4 8 6 12 10 6 20 23 28 27 21 17 20 21 24 23 26 28 31 33 32 30 28 32 33 32 28 27 26 25 25 23 23 23 23 24 23 22 21 20 19 17 16 14 12 12
3 3 2 3 10 12 6 19 6 10 18 23 29 32 32 30 26 27 26 26 28 30 32 30 29 30 31 35 35 31 30 29 29 27 26 26 25 25 26 26 25 22 21 20 20 19 17 15 14
1 6 4 6 15 7 8 20 9 19 24 24 23 27 33 34 30 30 30 33 30 31 30 34 34 34 32 33 36 34 32 32 32 30 29 28 27 27 29 27 26 25 24 24 22 21 20 18 17
6 5 5 9 2 5 10 21 10 24 24 31 33 32 29 32 30 27 31 33 35 34 32 32 35 36 34 34 35 36 34 35 34 33 33 32 30 29 30 30 28 28 27 26 25 24 23 21 18
2 3 8 6 6 14 13 18 12 21 23 26 32 35 40 40 31 28 27 32 40 39 38 35 34 39 39 41 40 41 42 40 39 38 36 33 34 32 32 32 31 31 31 29 27 25 25 24 21
11 11 14 9 7 6 10 17 17 19 21 26 31 33 35 40 41 41 35 34 33 43 42 41 38 36 42 43 42 42 43 43 41 40 39 36 36 35 34 34 35 35 33 31 31 29 29 27 25
11 15 12 8 4 10 10 15 16 15 26 31 38 39 40 42 43 43 39 36 41 40 46 46 43 40 41 43 44 43 44 45 45 45 44 42 40 38 37 36 36 37 36 35 34 32 32 31 29
15 7 7 9 5 6 7 6 16 9 17 20 29 33 40 42 43 45 43 39 37 43 41 41 45 44 43 44 48 48 49 50 48 46 46 45 44 43 41 39 38 39 39 38 37 34 34 33 33
10 7 9 9 9 8 7 5 10 3 10 15 15 22 28 36 38 44 47 46 42 42 44 46 45 49 48 47 49 51 51 51 48 46 46 47 47 46 45 43 41 41 41 41 40 38 37 37 36
5 1 4 2 1 10 16 10 12 10 15 12 15 28 35 35 30 31 34 38 39 39 44 43 49 53 51 50 50 52 54 52 52 51 50 48 47 47 48 47 46 44 44 44 42 40 39 39 39
5 5 4 5 5 5 9 7 16 16 20 12 19 27 32 32 34 29 28 40 35 33 36 42 45 49 52 52 53 53 55 56 55 54 54 51 50 49 49 49 49 48 47 46 45 45 43 42 43
7 10 7 8 5 4 2 7 8 17 27 30 35 40 33 40 37 28 25 17 22 26 28 35 41 41 46 52 54 55 54 56 57 57 57 57 54 52 49 48 49 50 48 47 47 48 47 46 46
5 7 12 12 10 3 5 6 14 14 16 16 20 22 23 25 32 26 21 16 17 23 24 26 33 38 40 50 52 55 55 56 57 56 58 59 57 56 53 51 48 49 49 48 48 49 49 49 49
15 6 3 3 4 11 7 7 9 9 4 7 8 8 18 26 25 14 11 11 13 16 16 17 21 28 34 40 49 54 55 55 56 56 58 59 58 56 56 54 51 48 48 47 49 50 49 50 50
4 11 6 3 4 3 6 6 9 9 5 6 11 24 31 22 11 11 12 11 12 12 9 12 14 17 26 34 39 47 52 52 54 57 58 58 58 56 55 55 54 51 49 47 48 49 50 50 50
17 18 15 8 7 4 3 11 3 11 14 21 14 27 22 28 26 29 16 15 19 16 17 17 18 25 23 20 31 39 44 50 54 57 59 57 58 57 56 56 55 54 53 51 50 50 50 51 52
Wind_Direction
320 340 332 344 48 62 15 323 71 81 52 76 66 72 120 62 60 150 138 192 179 171 161 156 147 147 148 141 136 134 123 120 118 112 113 106 101 105 99 57 107 108 104 102 98 94 90 90 90
320 339 5 317 85 75 300 15 74 72 107 82 71 48 66 89 98 143 143 178 201 180 170 161 154 158 156 154 157 164 180 166 154 125 128 113 112 117 117 85 110 105 105 106 104 94 95 96 93
346 318 322 73 100 140 163 123 143 111 99 106 89 77 63 106 127 144 160 178 192 178 175 169 170 170 171 174 180 175 170 175 166 132 132 131 134 132 132 139 112 113 115 110 103 101 103 98 95
347 10 299 66 298 332 147 136 140 126 103 109 84 86 90 106 149 166 166 176 191 177 177 182 180 178 181 186 175 161 139 148 139 141 140 135 132 126 140 137 125 125 118 118 105 105 102 97 96
359 325 26 7 292 228 154 136 122 164 155 147 106 149 108 154 191 157 163 180 177 169 177 184 184 184 189 183 183 163 137 147 173 145 144 144 146 136 147 143 142 133 129 116 108 107 103 100 101
339 6 33 300 274 280 99 131 115 353 157 138 114 129 147 161 191 161 168 175 191 175 183 193 192 189 190 186 183 189 173 135 179 160 156 151 155 139 155 170 156 145 136 115 114 111 107 107 106
41 68 242 308 287 323 164 139 135 161 207 116 136 92 153 176 175 162 175 180 188 191 189 195 200 196 192 192 193 194 197 183 172 170 168 163 160 155 158 175 166 150 131 129 125 121 116 108 109
4 91 298 292 291 293 176 122 154 112 81 139 169 157 179 195 181 175 187 186 202 209 201 206 204 203 199 195 202 204 206 214 217 211 191 176 167 172 170 169 165 153 146 146 142 132 123 118 116
301 50 260 257 286 308 187 144 168 146 125 198 236 207 205 187 187 186 191 182 189 202 221 224 214 211 204 206 208 205 216 219 213 223 212 200 191 184 182 174 164 159 169 166 161 150 140 129 127
161 141 226 251 307 333 255 5 163 141 172 208 244 239 225 198 201 195 187 183 195 207 220 229 220 212 212 210 214 215 217 225 229 224 224 208 201 203 193 183 177 184 187 182 176 172 161 155 150
194 190 267 289 303 345 15 346 338 176 203 216 244 249 235 219 215 210 202 194 198 210 221 225 225 223 223 216 214 212 220 225 228 218 219 214 205 201 202 197 190 195 197 195 195 191 186 183 183
256 254 272 285 295 330 313 315 325 290 254 278 333 324 250 235 231 226 218 208 205 213 220 221 224 229 220 223 226 228 224 226 229 226 214 219 213 208 210 210 205 204 206 207 208 206 209 210 211
254 259 260 276 272 302 303 272 274 274 277 277 283 280 252 238 248 250 240 226 215 218 223 223 223 230 230 225 228 229 231 229 230 235 213 217 223 220 217 215 213 212 214 217 219 217 219 221 219
305 334 311 296 305 307 291 281 284 279 285 283 265 266 257 243 240 254 247 239 227 220 223 227 229 228 227 231 233 235 236 230 228 234 236 218 226 224 225 218 219 216 220 224 225 225 225 229 232
330 345 339 280 293 288 291 283 239 271 271 266 259 261 248 247 248 248 258 258 248 233 225 227 231 229 228 228 233 234 238 232 232 234 238 233 226 229 225 225 223 221 222 224 227 227 229 230 236
49 47 276 196 240 259 239 262 253 260 272 269 265 255 255 251 247 252 256 261 263 246 235 229 230 233 231 231 232 233 232 234 238 236 237 235 235 234 228 226 228 227 227 228 229 230 232 234 239
149 254 237 283 243 258 202 269 266 257 258 269 269 266 256 255 255 251 257 255 259 260 243 230 231 234 232 234 235 235 232 232 236 238 239 239 237 237 234 229 229 229 229 230 231 233 234 238 242
206 215 234 244 279 269 265 270 259 259 257 271 277 274 273 259 251 255 254 254 249 258 253 241 232 233 234 236 235 235 233 234 235 237 238 240 240 237 237 235 232 230 230 230 230 233 235 238 239
315 221 250 257 289 262 263 279 294 282 265 260 266 268 268 264 260 252 254 256 249 253 248 243 236 233 232 232 231 232 231 231 234 236 238 239 241 239 236 237 236 233 232 234 234 234 234 237 236
228 235 254 275 268 336 324 297 290 281 268 259 264 268 269 267 260 253 248 250 257 248 246 242 237 236 235 235 238 237 238 236 238 239 239 239 240 240 238 238 237 235 234 235 234 232 234 236 234
231 235 243 242 321 294 302 293 278 268 256 263 263 266 263 262 260 258 254 245 246 246 242 241 241 241 244 239 237 236 236 238 237 237 240 239 241 242 240 238 238 238 236 236 237 234 234 237 234
243 200 210 221 222 263 168 286 274 277 276 275 276 263 260 261 261 261 256 250 247 248 247 242 243 240 244 242 237 236 235 236 239 239 240 239 241 242 241 240 239 239 238 238 239 238 238 238 238
251 188 228 232 247 256 235 255 283 219 271 268 276 279 275 271 263 262 256 253 249 247 251 247 245 244 243 243 242 241 239 242 244 244 243 241 242 243 244 242 240 239 238 241 240 239 237 239 241
217 185 238 200 195 239 237 209 262 259 251 263 262 269 281 276 280 274 261 258 257 253 249 252 250 245 243 243 244 244 245 243 242 242 243 244 242 242 243 243 242 242 241 240 242 242 241 242 244
170 155 251 234 212 256 234 202 242 266 254 259 274 269 274 277 289 284 270 256 260 261 254 252 250 247 244 243 243 247 248 247 246 246 245 245 245 242 241 241 241 241 242 242 242 242 243 243 244
189 195 220 242 222 269 17 207 245 229 269 265 263 272 273 274 282 281 272 276 273 271 264 257 256 254 252 247 247 249 249 247 248 248 248 248 249 252 251 246 245 244 244 244 244 244 245 246 246
206 198 233 256 263 287 235 261 288 269 264 256 282 289 282 282 288 292 295 291 289 280 273 269 261 259 257 253 250 248 249 248 249 250 250 249 252 254 253 252 249 248 245 245 245 246 246 246 248
208 149 227 200 243 250 233 224 232 251 275 311 301 345 348 345 336 312 315 317 297 281 278 282 274 271 269 265 254 251 250 251 253 253 250 249 253 252 251 252 252 250 248 246 246 247 247 247 249
197 224 220 206 191 255 249 244 225 252 309 320 328 331 336 321 335 358 349 6 20 11 15 357 333 292 269 267 265 258 253 253 252 252 251 252 253 251 250 252 253 251 250 248 245 246 247 247 248
207 214 212 223 234 239 304 270 237 288 295 314 339 336 330 343 345 341 339 343 340 345 332 325 328 321 314 284 266 263 262 256 252 250 251 251 251 252 251 253 253 253 252 251 248 247 246 246 246
Height
1548 1546 1543 1541 1551 1556 1565 1557 1547 1550 1552 1554 1554 1554 1558 1561 1562 1572 1567 1569 1571 1574 1575 1576 1577 1577 1579 1580 1581 1581 1581 1581 1582 1582 1583 1583 1584 1586 1586 1584 1583 1583 1583 1583 1583 1583 1583 1583 1582
1549 1546 1544 1542 1558 1574 1570 1557 1557 1553 1552 1554 1555 1556 1558 1564 1563 1564 1566 1568 1571 1573 1575 1576 1577 1578 1579 1580 1581 1582 1582 1582 1581 1581 1582 1583 1584 1587 1587 1586 1585 1585 1585 1585 1585 1584 1584 1584 1584
1549 1548 1547 1549 1559 1569 1567 1554 1553 1553 1553 1554 1555 1557 1559 1563 1564 1565 1566 1567 1570 1573 1575 1576 1577 1578 1579 1580 1581 1581 1582 1581 1581 1581 1583 1584 1585 1587 1588 1586 1586 1587 1586 1586 1586 1586 1586 1586 1586
1550 1550 1550 1558 1560 1551 1552 1550 1549 1550 1552 1553 1555 1558 1561 1563 1563 1565 1567 1566 1568 1572 1575 1576 1577 1578 1579 1580 1580 1581 1581 1581 1581 1581 1582 1584 1585 1587 1588 1588 1587 1587 1587 1587 1587 1587 1587 1588 1588
1552 1552 1558 1561 1558 1551 1548 1547 1549 1549 1550 1552 1554 1558 1560 1563 1563 1564 1565 1567 1568 1571 1573 1575 1576 1577 1579 1579 1580 1581 1581 1581 1581 1581 1582 1584 1585 1586 1588 1588 1588 1588 1588 1588 1588 1588 1588 1589 1589
1554 1554 1567 1570 1560 1549 1548 1547 1548 1551 1551 1550 1551 1556 1559 1560 1563 1564 1565 1567 1569 1570 1572 1574 1576 1577 1578 1579 1580 1581 1581 1582 1581 1581 1581 1583 1584 1586 1588 1588 1588 1588 1588 1589 1589 1589 1589 1590 1590
1557 1560 1566 1562 1561 1554 1549 1548 1549 1550 1552 1553 1552 1553 1558 1558 1561 1564 1564 1567 1568 1569 1571 1572 1574 1575 1577 1578 1579 1580 1581 1581 1582 1581 1581 1581 1583 1585 1587 1588 1587 1588 1589 1589 1589 1590 1590 1590 1591
1558 1560 1562 1561 1562 1559 1550 1549 1550 1548 1552 1553 1553 1553 1556 1556 1558 1562 1562 1566 1567 1567 1570 1571 1573 1574 1575 1576 1578 1579 1580 1581 1581 1581 1581 1581 1582 1583 1585 1586 1587 1588 1589 1589 1590 1590 1590 1591 1591
1558 1566 1569 1561 1556 1554 1550 1548 1549 1549 1551 1554 1555 1554 1553 1553 1556 1558 1561 1562 1565 1565 1567 1569 1570 1572 1573 1575 1576 1577 1578 1579 1580 1580 1581 1582 1582 1582 1584 1585 1586 1588 1588 1589 1589 1590 1591 1591 1591
1557 1566 1561 1553 1553 1554 1552 1550 1550 1552 1551 1553 1554 1554 1553 1553 1554 1555 1556 1555 1560 1561 1564 1566 1568 1569 1571 1573 1574 1575 1576 1577 1578 1579 1580 1581 1581 1582 1583 1584 1585 1586 1587 1588 1589 1589 1590 1590 1591
1554 1560 1554 1552 1552 1554 1554 1553 1552 1551 1553 1551 1553 1554 1553 1554 1554 1554 1556 1555 1554 1557 1561 1562 1565 1566 1568 1568 1571 1572 1574 1574 1575 1576 1577 1578 1579 1580 1582 1583 1584 1585 1586 1587 1588 1589 1589 1589 1590
1554 1552 1552 1552 1551 1552 1551 1552 1553 1552 1551 1552 1551 1550 1551 1552 1553 1553 1553 1555 1555 1554 1556 1558 1562 1563 1565 1566 1567 1569 1571 1571 1572 1573 1574 1575 1576 1577 1579 1581 1582 1583 1585 1586 1587 1587 1588 1588 1588
1550 1550 1550 1551 1550 1550 1550 1549 1549 1549 1550 1550 1549 1548 1547 1549 1550 1552 1552 1553 1554 1553 1552 1555 1557 1559 1561 1561 1564 1565 1567 1568 1569 1570 1571 1571 1573 1575 1577 1578 1580 1581 1582 1584 1585 1585 1586 1586 1587
1548 1548 1548 1548 1548 1549 1550 1547 1548 1546 1547 1546 1546 1545 1543 1543 1545 1547 1549 1549 1549 1549 1548 1549 1551 1555 1557 1557 1558 1560 1563 1564 1566 1566 1568 1569 1570 1572 1574 1575 1576 1578 1579 1581 1582 1583 1584 1584 1585
1545 1547 1546 1547 1548 1548 1549 1545 1543 1544 1544 1542 1542 1541 1541 1540 1539 1540 1542 1543 1544 1544 1546 1543 1546 1549 1551 1552 1554 1556 1557 1559 1560 1562 1564 1566 1567 1568 1570 1571 1573 1575 1576 1578 1579 1580 1581 1581 1582
1546 1549 1554 1544 1546 1547 1549 1539 1538 1540 1539 1536 1535 1536 1535 1535 1535 1534 1535 1537 1539 1539 1540 1541 1541 1543 1545 1548 1549 1550 1553 1554 1556 1557 1559 1561 1562 1564 1565 1567 1568 1571 1572 1574 1575 1577 1577 1579 1579
1550 1553 1552 1548 1544 1546 1547 1533 1533 1533 1533 1531 1530 1531 1529 1527 1528 1529 1528 1530 1532 1533 1534 1535 1535 1535 1538 1541 1544 1545 1548 1549 1550 1553 1554 1555 1557 1559 1560 1562 1564 1566 1567 1569 1571 1572 1574 1575 1576
1547 1550 1548 1545 1543 1542 1542 1531 1530 1530 1530 1527 1525 1523 1523 1521 1519 1521 1522 1522 1524 1526 1527 1528 1530 1530 1532 1534 1537 1540 1541 1543 1545 1546 1548 1550 1551 1553 1555 1557 1559 1561 1562 1564 1566 1567 1569 1570 1572
1541 1542 1542 1539 1542 1543 1539 1531 1528 1525 1524 1522 1518 1515 1515 1514 1515 1513 1514 1515 1515 1517 1519 1520 1522 1524 1527 1527 1527 1531 1530 1534 1537 1539 1542 1544 1545 1548 1549 1551 1553 1554 1556 1558 1561 1563 1564 1566 1568
1541 1543 1538 1538 1540 1542 1539 1532 1525 1523 1518 1515 1512 1508 1509 1507 1505 1505 1505 1507 1506 1507 1510 1513 1513 1516 1519 1521 1521 1522 1525 1526 1529 1532 1534 1537 1538 1541 1543 1545 1546 1548 1549 1552 1554 1556 1558 1560 1563
1537 1537 1537 1541 1540 1538 1541 1535 1521 1512 1508 1507 1502 1503 1500 1498 1496 1495 1496 1495 1498 1498 1499 1503 1504 1505 1508 1511 1515 1517 1520 1521 1521 1521 1524 1526 1529 1532 1535 1536 1539 1541 1543 1544 1546 1549 1550 1552 1555
1536 1532 1535 1538 1544 1542 1538 1533 1515 1512 1505 1499 1499 1497 1493 1491 1490 1488 1487 1487 1489 1489 1490 1492 1496 1497 1498 1503 1505 1505 1505 1506 1506 1510 1514 1518 1521 1523 1526 1528 1530 1532 1535 1536 1538 1542 1543 1545 1546
1529 1529 1531 1533 1534 1536 1536 1538 1509 1506 1502 1495 1493 1489 1484 1481 1480 1477 1477 1476 1477 1482 1484 1484 1487 1488 1490 1493 1495 1498 1499 1499 1503 1505 1505 1508 1511 1514 1516 1519 1521 1523 1525 1527 1530 1533 1535 1536 1539
1524 1526 1528 1530 1534 1530 1523 1532 1512 1504 1494 1488 1484 1480 1475 1475 1474 1470 1468 1468 1469 1472 1476 1478 1478 1478 1482 1484 1486 1488 1489 1492 1495 1495 1495 1497 1499 1503 1506 1509 1511 1514 1516 1518 1520 1524 1526 1528 1530
1524 1530 1534 1533 1531 1518 1509 1524 1505 1491 1480 1480 1473 1472 1470 1469 1467 1464 1460 1461 1461 1464 1468 1470 1471 1471 1474 1475 1476 1478 1479 1482 1484 1486 1486 1488 1489 1491 1493 1497 1500 1502 1505 1509 1512 1514 1516 1518 1519
1519 1522 1523 1527 1521 1521 1515 1515 1495 1481 1473 1472 1471 1465 1464 1463 1461 1459 1456 1456 1454 1458 1460 1462 1462 1462 1464 1465 1465 1467 1470 1470 1471 1474 1475 1476 1479 1481 1484 1487 1491 1494 1497 1500 1503 1504 1507 1508 1509
1511 1517 1511 1520 1519 1530 1512 1499 1483 1474 1469 1466 1465 1464 1462 1459 1458 1454 1453 1450 1450 1453 1456 1457 1457 1457 1458 1457 1458 1458 1459 1460 1460 1462 1464 1466 1470 1472 1474 1476 1480 1484 1488 1490 1493 1494 1496 1499 1500
1497 1503 1517 1520 1528 1513 1505 1501 1486 1469 1466 1465 1464 1466 1464 1459 1454 1450 1449 1446 1447 1449 1451 1453 1453 1452 1452 1452 1451 1451 1451 1451 1452 1455 1454 1455 1458 1461 1464 1465 1468 1473 1477 1480 1483 1484 1486 1488 1490
1502 1503 1506 1507 1513 1504 1498 1493 1465 1465 1467 1465 1466 1467 1463 1459 1454 1451 1447 1447 1448 1450 1449 1450 1450 1447 1446 1444 1444 1444 1444 1444 1445 1444 1445 1445 1449 1452 1454 1455 1458 1461 1465 1469 1471 1473 1475 1477 1479
1486 1489 1496 1505 1509 1511 1500 1484 1462 1461 1463 1464 1465 1466 1463 1462 1459 1456 1450 1449 1448 1450 1450 1447 1445 1442 1440 1437 1437 1436 1436 1435 1435 1434 1436 1438 1439 1441 1444 1445 1447 1450 1452 1456 1459 1462 1463 1465 1467